Cleveland, OH

7:48 AM EDT on July 22, 2017 (GMT -0400)
Cleveland-Hopkins International

Weather History for KCLE - March, 2013

Change the Weather History Date:

Friday, March 1, 2013

  Actual Average Record
Temperature  
Mean Temperature 28 °F 34 °F  
Max Temperature 30 °F 41 °F 69 °F (1972)
Min Temperature 26 °F 26 °F -2 °F (1884)
Degree Days  
Heating Degree Days 37 31  
Month to date heating degree days 37 31  
Since 1 July heating degree days 4216 4248  
Cooling Degree Days 0 0  
Month to date cooling degree days 0 0  
Year to date cooling degree days 0 0  
Moisture  
Dew Point 23 °F    
Average Humidity 87    
Maximum Humidity 92    
Minimum Humidity 81    
Precipitation  
Precipitation 0.04 in 0.08 in 1.45 in (1954)
Month to date precipitation 0.04 0.08  
Year to date precipitation 4.51 5.14  
Snow  
Snow 0.80 in 0.50 in - ()
Month to date snowfall 0.8 0.5  
Since 1 July snowfall 41.5 52.7  
Snow Depth 0.00 in    
Sea Level Pressure  
Sea Level Pressure 30.01 in    
Wind  
Wind Speed 15 mph (NNW)    
Max Wind Speed 22 mph    
Max Gust Speed 29 mph    
Visibility 4 miles    
Events Snow    
T = Trace of Precipitation, MM = Missing Value Source: NWS Daily Summary

Daily Weather History Graph

Daily Weather History Graph

Search for Another Location

Airport or City:

Trip Planner

Search our weather history database for the weather conditions in past years. The results will help you decide how hot, cold, wet, or windy it might be!

Date:

Astronomy

Mar. 01, 2013 Rise Set
Actual Time 7:01 AM EST 6:18 PM EST
Civil Twilight 6:33 AM EST 6:46 PM EST
Nautical Twilight 6:01 AM EST 7:18 PM EST
Astronomical Twilight 5:29 AM EST 7:50 PM EST
Moon 10:54 PM EST (3/1) 8:44 AM EST (3/1)
Length of Visible Light 12h 12m
Length of Day
11h 16m
Waning Gibbous, 83% of the Moon is Illuminated
Mar 1
Waning Gibbous
Mar 4
Last Quarter
Mar 11
New
Mar 19
First Quarter
Mar 27
Full

Hourly Weather History & Observations

Time (EST) Temp. Windchill Dew Point Humidity Pressure Visibility Wind Dir Wind Speed Gust Speed Precip Events Conditions
12:51 AM 30.0 °F 19.1 °F 27.0 °F 88% 29.93 in 9.0 mi NW 15.0 mph 23.0 mph 0.00 in Snow Light Snow
1:51 AM 30.0 °F 18.7 °F 27.0 °F 88% 29.94 in 9.0 mi NW 16.1 mph 23.0 mph 0.00 in Snow Light Snow
2:51 AM 30.0 °F 19.1 °F 26.1 °F 85% 29.94 in 9.0 mi NNW 15.0 mph 21.9 mph 0.00 in Snow Light Snow
3:51 AM 30.0 °F 19.1 °F 26.1 °F 85% 29.94 in 9.0 mi North 15.0 mph - 0.00 in Snow Light Snow
4:11 AM 28.9 °F 18.6 °F 25.0 °F 85% 29.92 in 9.0 mi North 12.7 mph 25.3 mph 0.00 in Snow Light Snow
4:51 AM 28.9 °F 18.2 °F 24.1 °F 82% 29.96 in 10.0 mi North 13.8 mph - 0.00 in   Overcast
5:51 AM 28.0 °F 15.7 °F 24.1 °F 85% 29.96 in 10.0 mi North 17.3 mph 26.5 mph N/A   Overcast
6:27 AM 28.0 °F 16.5 °F 21.9 °F 78% 29.95 in 9.0 mi North 15.0 mph - 0.00 in Snow Light Snow
6:51 AM 27.0 °F 13.5 °F 24.1 °F 89% 29.98 in 4.0 mi North 19.6 mph - 0.00 in Snow Light Snow
7:10 AM 27.0 °F 14.7 °F 23.0 °F 85% 29.96 in 7.0 mi NNW 16.1 mph - 0.00 in Snow Light Snow
7:17 AM 27.0 °F 15.2 °F 23.0 °F 85% 29.96 in 4.0 mi North 15.0 mph - 0.00 in Snow Light Snow
7:51 AM 27.0 °F 16.1 °F 23.0 °F 85% 30.00 in 4.0 mi North 12.7 mph 20.7 mph 0.00 in Snow Light Snow
8:16 AM 27.0 °F 15.6 °F 21.0 °F 78% 29.98 in 10.0 mi North 13.8 mph - 0.00 in   Overcast
8:39 AM 27.0 °F 14.3 °F 21.9 °F 81% 29.99 in 1.8 mi North 17.3 mph - 0.00 in Snow Light Snow
8:46 AM 26.6 °F 14.7 °F 21.2 °F 80% 29.99 in 3.0 mi North 15.0 mph - 0.00 in Snow Light Snow
8:47 AM 27.0 °F 15.2 °F 21.9 °F 81% 30.01 in 3.0 mi North 15.0 mph - 0.00 in Snow Light Snow
8:57 AM 27.0 °F 15.2 °F 21.0 °F 78% 29.99 in 3.0 mi North 15.0 mph - 0.00 in Snow Light Snow
9:16 AM 27.0 °F 14.7 °F 21.9 °F 81% 29.99 in 1.8 mi North 16.1 mph - 0.00 in Snow Light Snow
9:51 AM 27.0 °F 15.6 °F 21.0 °F 78% 30.03 in 2.5 mi North 13.8 mph - 0.00 in Snow Light Snow
10:05 AM 27.0 °F 15.2 °F 21.9 °F 81% 30.00 in 1.2 mi North 15.0 mph - 0.00 in Snow Light Snow
10:14 AM 27.0 °F 15.2 °F 21.9 °F 81% 30.00 in 3.0 mi North 15.0 mph - 0.00 in Snow Light Snow
10:32 AM 27.0 °F 16.1 °F 21.9 °F 81% 30.00 in 3.0 mi North 12.7 mph - 0.00 in Snow Light Snow
10:51 AM 27.0 °F 15.6 °F 23.0 °F 85% 30.04 in 1.8 mi North 13.8 mph - 0.00 in Snow Light Snow
10:56 AM 27.0 °F 15.6 °F 23.0 °F 85% 30.01 in 2.0 mi North 13.8 mph - 0.00 in Snow Light Snow
11:06 AM 27.0 °F 16.7 °F 23.0 °F 85% 30.01 in 3.0 mi North 11.5 mph - 0.00 in Snow Light Snow
11:15 AM 27.0 °F 17.3 °F 24.1 °F 89% 30.01 in 1.8 mi NNW 10.4 mph - 0.01 in Snow Light Snow
11:43 AM 27.0 °F 16.1 °F 24.1 °F 89% 30.01 in 1.8 mi NNW 12.7 mph - 0.01 in Snow Light Snow
11:51 AM 27.0 °F 14.7 °F 23.0 °F 85% 30.04 in 1.8 mi NNW 16.1 mph - 0.02 in Snow Light Snow
12:51 PM 27.0 °F 13.9 °F 24.1 °F 89% 30.04 in 1.2 mi NNW 18.4 mph - 0.00 in Snow Light Snow
1:13 PM 28.0 °F 17.0 °F 24.1 °F 85% 30.01 in 1.8 mi NNW 13.8 mph - 0.01 in Snow Light Snow
1:25 PM 28.0 °F 16.1 °F 24.1 °F 85% 30.01 in 2.0 mi NNW 16.1 mph - 0.01 in Snow Light Snow
1:51 PM 27.0 °F 14.7 °F 24.1 °F 89% 30.03 in 4.0 mi NNW 16.1 mph 21.9 mph 0.01 in Snow Light Snow
2:09 PM 28.0 °F 15.7 °F 24.1 °F 85% 30.00 in 2.5 mi NNW 17.3 mph 24.2 mph 0.00 in Snow Light Snow
2:19 PM 28.0 °F 15.7 °F 24.1 °F 85% 29.99 in 3.0 mi NNW 17.3 mph - 0.00 in Snow Light Snow
2:22 PM 28.4 °F 16.2 °F 24.8 °F 86% 29.99 in 2.5 mi NNW 17.3 mph - N/A Snow Light Snow
2:51 PM 28.0 °F 16.5 °F 24.1 °F 85% 30.03 in 2.5 mi NNW 15.0 mph 21.9 mph 0.00 in Snow Light Snow
3:07 PM 28.4 °F 19.1 °F 24.8 °F 86% 30.00 in 1.8 mi NNW 10.4 mph - N/A Snow Light Snow
3:28 PM 28.0 °F 16.5 °F 24.1 °F 85% 30.00 in 2.5 mi NNW 15.0 mph - 0.00 in Snow Light Snow
3:46 PM 26.6 °F 15.2 °F 24.8 °F 93% 30.00 in 1.8 mi NNW 13.8 mph - 0.00 in Snow Light Snow
3:51 PM 28.0 °F 15.7 °F 24.1 °F 85% 30.03 in 2.0 mi NNW 17.3 mph - 0.00 in Snow Light Snow
4:32 PM 27.0 °F 16.1 °F 24.1 °F 89% 30.00 in 1.5 mi NNW 12.7 mph 20.7 mph 0.00 in Snow Light Snow
4:51 PM 27.0 °F 16.7 °F 23.0 °F 85% 30.04 in 2.0 mi NNW 11.5 mph 23.0 mph 0.00 in Snow Light Snow
5:11 PM 27.0 °F 14.7 °F 23.0 °F 85% 30.01 in 2.0 mi NNW 16.1 mph 20.7 mph 0.00 in Snow Light Snow
5:21 PM 27.0 °F 16.1 °F 23.0 °F 85% 30.01 in 3.0 mi North 12.7 mph - 0.00 in Snow Light Snow
5:33 PM 27.0 °F 15.6 °F 24.1 °F 89% 30.01 in 1.8 mi NNW 13.8 mph - 0.00 in Snow Light Snow
5:51 PM 27.0 °F 15.2 °F 24.1 °F 89% 30.05 in 1.8 mi NNW 15.0 mph - 0.00 in Snow Light Snow
5:58 PM 27.0 °F 16.1 °F 23.0 °F 85% 30.02 in 1.8 mi NNW 12.7 mph - 0.00 in Snow Light Snow
6:05 PM 27.0 °F 16.1 °F 23.0 °F 85% 30.02 in 1.8 mi NNW 12.7 mph - 0.00 in Snow Light Snow
6:19 PM 27.0 °F 16.1 °F 21.9 °F 81% 30.02 in 3.0 mi NNW 12.7 mph - 0.00 in Snow Light Snow
6:49 PM 26.6 °F 15.7 °F 21.2 °F 80% 30.03 in 6.0 mi North 12.7 mph 20.7 mph 0.00 in Snow Light Snow
6:51 PM 27.0 °F 15.6 °F 21.9 °F 81% 30.06 in 5.0 mi North 13.8 mph - 0.00 in Snow Light Snow
7:51 PM 26.1 °F 14.0 °F 21.0 °F 81% 30.06 in 9.0 mi North 15.0 mph - 0.00 in Snow Light Snow
8:46 PM 26.6 °F 16.8 °F 21.2 °F 80% 30.05 in 9.0 mi NNW 10.4 mph - 0.00 in Snow Light Snow
8:51 PM 26.1 °F 15.6 °F 21.9 °F 84% 30.07 in 9.0 mi NNW 11.5 mph - 0.00 in Snow Light Snow
9:27 PM 26.1 °F 14.5 °F 21.9 °F 84% 30.05 in 6.0 mi North 13.8 mph - 0.00 in Snow Light Snow
9:35 PM 26.1 °F 16.2 °F 21.9 °F 84% 30.05 in 8.0 mi North 10.4 mph - 0.00 in Snow Light Snow
9:51 PM 26.1 °F 15.6 °F 21.0 °F 81% 30.07 in 9.0 mi NNW 11.5 mph - 0.00 in   Overcast
10:51 PM 26.1 °F 15.6 °F 21.9 °F 84% 30.06 in 10.0 mi North 11.5 mph - 0.00 in   Overcast
11:17 PM 26.1 °F 16.2 °F 23.0 °F 88% 30.03 in 5.0 mi North 10.4 mph - 0.00 in Snow Light Snow
11:51 PM 26.1 °F 14.5 °F 23.0 °F 88% 30.05 in 3.0 mi North 13.8 mph - 0.00 in Snow Light Snow